星链-3865 (STARLINK-3865 )

导读 | 星芒AI

STARLINK-3865 是 SpaceX Starlink 项目中的一颗低轨通信卫星,属于第 11 批组网发射的卫星之一。该卫星于 2021 年 10 月 31 日由猎鹰 9 号火箭送入近地轨道,旨在为全球提供高速互联网服务。它运行在约 550 公里的高度,采用先进的相控阵天线和激光通信技术,提升网络覆盖与传输效率。作为 Starlink 卫星群的重要组成部分,STARLINK-3865 支持偏远地区的宽带接入,助力实现全球互联网覆盖目标。

基本信息
目录编号:
52460
目录名称:
STARLINK-3865
国际标识:
2022-049K
轨道中心:
EARTH
卫星名称:
星链-3865
卫星全名:
星链-3865 (STARLINK-3865 )
卫星状态:
已陨落 最后检测时间 2025-01-01
发射日期:
2022-05-06 UTC
国别 :
美国 (US)
星等 :
--
轨道信息
数据来源 国际轨道数据
星历时间: 2025-01-01T14:33:33+0800
轨道信息已过期353天
半长轴: 6524.687km
偏心率: 0.0001697
轨道倾角: 53.200°
近地点辐角 325.846°
升交点赤经 179.461°
平近点角 158.103°
近地点: 145.444km
远地点: 147.66km
周期: 87.418分钟
每日圈数: 16.472643
详细信息
固有亮度:
5
最大亮度:
2.5
卫星平台:
Starlink v1.5
覆盖范围:
全球
运营商:
太空探索技术公司
运营商所在国:
美国
制造商(研发单位):
太空探索技术公司
制造商所在国:
美国
使用方式:
暂无
卫星简介
星链(Starlink)计划是由太空探索技术公司(SpaceX)提出的一个巨型低轨卫星互联网星座项目,计划在2019年至2024年间在太空搭建由约1.2万颗卫星组成的“星链”网络,其中1584颗将部署在地球上空550千米处的近地轨道,并从2020年开始工作。该卫星仍在工作。